ACA856 CYYT-EGGP

Flight info

Callsign ACA856
Flight time 4h 7m
Altitude 35000
Route NICSO DCT 48N050W 51N040W 54N030W 55N020W DCT RESNO/N0483F350 DCT NETKI DCT MCM DCT KOGAX DCT BOFUM
Aircraft B77W/H-SDE1E2E3FGHIJ2J3J4J5M1RWXY/LB1D1

Departure

Time 2026-04-25 14:13
Airport St. John's International Airport (CYYT)

Arrival

Time 2026-04-25 18:20
Airport Liverpool John Lennon Airport (EGGP)
Time Latitude Longitude Altitude Speed Heading
2026-04-25 13:41 47.61782 -52.75117 456 ft 0 kts 187°
2026-04-25 14:04 47.61797 -52.75114 456 ft 2 kts 187°
2026-04-25 14:04 47.61813 -52.75113 455 ft 2 kts 114°
2026-04-25 14:05 47.61812 -52.75128 454 ft 0 kts 15°
2026-04-25 14:07 47.61822 -52.75130 457 ft 3 kts 343°
2026-04-25 14:07 47.61828 -52.75162 456 ft 4 kts 267°
2026-04-25 14:07 47.61800 -52.75228 457 ft 9 kts 237°
2026-04-25 14:08 47.61760 -52.75315 457 ft 11 kts 234°
2026-04-25 14:08 47.61725 -52.75385 457 ft 0 kts 233°
2026-04-25 14:08 47.61721 -52.75393 457 ft 1 kts 233°
2026-04-25 14:08 47.61716 -52.75403 457 ft 1 kts 233°
2026-04-25 14:09 47.61710 -52.75414 457 ft 1 kts 233°
2026-04-25 14:09 47.61712 -52.75434 458 ft 6 kts 289°
2026-04-25 14:09 47.61759 -52.75545 458 ft 15 kts 307°
2026-04-25 14:09 47.61804 -52.75632 459 ft 19 kts 307°
2026-04-25 14:10 47.61944 -52.75906 462 ft 26 kts 307°
2026-04-25 14:10 47.62054 -52.76118 463 ft 26 kts 308°
2026-04-25 14:10 47.62166 -52.76328 465 ft 26 kts 307°
2026-04-25 14:10 47.62262 -52.76541 467 ft 18 kts 292°
2026-04-25 14:11 47.62287 -52.76725 468 ft 18 kts 272°
2026-04-25 14:11 47.62277 -52.76911 470 ft 18 kts 262°
2026-04-25 14:11 47.62274 -52.77051 470 ft 12 kts 291°
2026-04-25 14:11 47.62336 -52.77118 469 ft 12 kts 354°
2026-04-25 14:12 47.62367 -52.77055 469 ft 8 kts 85°
2026-04-25 14:12 47.62382 -52.76778 468 ft 60 kts 85°
2026-04-25 14:12 47.62430 -52.75749 462 ft 138 kts 85°
2026-04-25 14:12 47.62513 -52.74020 503 ft 188 kts 84°
2026-04-25 14:13 47.62605 -52.72180 1380 ft 175 kts 74°
2026-04-25 14:13 47.62831 -52.70441 2248 ft 174 kts 70°
2026-04-25 14:13 47.63098 -52.68669 2843 ft 178 kts 70°
2026-04-25 14:13 47.63373 -52.66869 3381 ft 180 kts 70°
2026-04-25 14:14 47.63556 -52.65006 3775 ft 197 kts 89°
2026-04-25 14:14 47.63155 -52.62898 3957 ft 226 kts 101°
2026-04-25 14:14 47.62646 -52.60568 4252 ft 247 kts 101°
2026-04-25 14:14 47.62115 -52.58108 4920 ft 254 kts 101°
2026-04-25 14:15 47.61581 -52.55620 6009 ft 249 kts 101°
2026-04-25 14:15 47.61410 -52.54819 6474 ft 254 kts 101°
2026-04-25 14:15 47.60506 -52.50511 8828 ft 271 kts 102°
2026-04-25 14:15 47.59935 -52.47772 10183 ft 278 kts 102°
2026-04-25 14:16 47.59362 -52.45017 11534 ft 282 kts 101°
2026-04-25 14:16 47.58788 -52.42249 12820 ft 287 kts 101°
2026-04-25 14:16 47.58198 -52.39395 13962 ft 292 kts 100°
2026-04-25 14:16 47.57599 -52.36501 15116 ft 295 kts 100°
2026-04-25 14:17 47.56994 -52.33574 16178 ft 301 kts 99°
2026-04-25 14:17 47.56363 -52.30487 16584 ft 328 kts 99°
2026-04-25 14:17 47.55678 -52.27134 16779 ft 351 kts 100°
2026-04-25 14:17 47.54944 -52.23586 16934 ft 369 kts 101°
2026-04-25 14:18 47.54169 -52.19872 17162 ft 384 kts 101°
2026-04-25 14:18 47.53368 -52.16057 17589 ft 393 kts 101°
2026-04-25 14:18 47.52550 -52.12162 18086 ft 398 kts 101°
2026-04-25 14:18 47.51727 -52.08232 18633 ft 401 kts 101°
2026-04-25 14:19 47.50952 -52.04278 19159 ft 398 kts 95°
2026-04-25 14:19 47.50725 -52.00233 19583 ft 393 kts 82°
2026-04-25 14:19 47.51049 -51.96247 20182 ft 389 kts 73°
2026-04-25 14:19 47.51841 -51.92472 20682 ft 383 kts 64°
2026-04-25 14:20 47.52805 -51.88818 21118 ft 388 kts 64°
2026-04-25 14:20 47.53478 -51.86302 21488 ft 389 kts 64°
2026-04-25 14:20 47.54798 -51.81356 22253 ft 391 kts 63°
2026-04-25 14:20 47.55793 -51.77593 22804 ft 394 kts 63°
2026-04-25 14:21 47.56787 -51.73803 23230 ft 397 kts 63°
2026-04-25 14:21 47.57784 -51.69974 23616 ft 400 kts 64°
2026-04-25 14:21 47.58783 -51.66114 24007 ft 403 kts 64°
2026-04-25 14:21 47.59785 -51.62225 24402 ft 405 kts 64°
2026-04-25 14:22 47.60793 -51.58302 24778 ft 408 kts 64°
2026-04-25 14:22 47.61806 -51.54352 25146 ft 411 kts 64°
2026-04-25 14:22 47.62825 -51.50366 25504 ft 414 kts 64°
2026-04-25 14:22 47.63848 -51.46360 25852 ft 417 kts 64°
2026-04-25 14:23 47.64877 -51.42322 26182 ft 420 kts 64°
2026-04-25 14:23 47.65910 -51.38262 26506 ft 423 kts 64°
2026-04-25 14:23 47.66951 -51.34162 26829 ft 426 kts 64°
2026-04-25 14:23 47.67997 -51.30039 27137 ft 428 kts 65°
2026-04-25 14:24 47.69035 -51.25938 27427 ft 431 kts 65°
2026-04-25 14:24 47.70091 -51.21758 27682 ft 434 kts 65°
2026-04-25 14:24 47.71153 -51.17547 27948 ft 437 kts 65°
2026-04-25 14:24 47.72089 -51.13826 28153 ft 439 kts 65°
2026-04-25 14:25 47.73161 -51.09559 28212 ft 442 kts 65°
2026-04-25 14:25 47.75334 -51.00895 28256 ft 452 kts 65°
2026-04-25 14:26 47.77525 -50.92109 28258 ft 454 kts 66°
2026-04-25 14:26 47.79713 -50.83300 28251 ft 453 kts 66°
2026-04-25 14:27 47.81893 -50.74494 28249 ft 455 kts 66°
2026-04-25 14:27 47.84076 -50.65647 28248 ft 456 kts 66°
2026-04-25 14:28 47.86257 -50.56772 28250 ft 457 kts 66°
2026-04-25 14:28 47.88432 -50.47883 28242 ft 457 kts 66°
2026-04-25 14:29 47.90606 -50.38963 28255 ft 460 kts 67°
2026-04-25 14:29 47.91700 -50.34465 28585 ft 462 kts 67°
2026-04-25 14:29 47.92792 -50.29961 29044 ft 462 kts 67°
2026-04-25 14:29 47.93883 -50.25452 29457 ft 462 kts 68°
2026-04-25 14:30 47.94974 -50.20935 29785 ft 463 kts 68°
2026-04-25 14:30 47.97158 -50.11864 30412 ft 466 kts 68°
2026-04-25 14:30 47.98254 -50.07301 30706 ft 467 kts 68°
2026-04-25 14:31 47.99355 -50.02728 31005 ft 468 kts 68°
2026-04-25 14:31 48.00588 -49.98289 31291 ft 468 kts 63°
2026-04-25 14:31 48.02095 -49.93983 31606 ft 468 kts 60°
2026-04-25 14:31 48.03661 -49.89709 31889 ft 470 kts 60°
2026-04-25 14:32 48.05242 -49.85415 32151 ft 471 kts 60°
2026-04-25 14:32 48.06818 -49.81120 32182 ft 472 kts 61°
2026-04-25 14:32 48.09960 -49.72486 32234 ft 473 kts 61°
2026-04-25 14:33 48.13078 -49.63830 32241 ft 473 kts 61°
2026-04-25 14:33 48.16189 -49.55147 32238 ft 473 kts 62°
2026-04-25 14:34 48.19299 -49.46438 32243 ft 474 kts 62°
2026-04-25 14:34 48.22404 -49.37712 32248 ft 474 kts 62°
2026-04-25 14:35 48.25486 -49.29028 32249 ft 474 kts 62°
2026-04-25 14:35 48.28581 -49.20276 32247 ft 475 kts 62°
2026-04-25 14:36 48.31673 -49.11504 32250 ft 475 kts 62°
2026-04-25 14:36 48.34758 -49.02721 32257 ft 476 kts 62°
2026-04-25 14:37 48.37844 -48.93906 32256 ft 476 kts 62°
2026-04-25 14:37 48.40922 -48.85085 32259 ft 476 kts 62°
2026-04-25 14:38 48.43993 -48.76253 32264 ft 476 kts 62°
2026-04-25 14:38 48.46541 -48.68901 32268 ft 476 kts 63°
2026-04-25 14:39 48.49594 -48.60066 32274 ft 475 kts 63°
2026-04-25 14:39 48.52632 -48.51244 32276 ft 473 kts 63°
2026-04-25 14:40 48.55666 -48.42404 32284 ft 473 kts 63°
2026-04-25 14:40 48.58686 -48.33576 32285 ft 473 kts 63°
2026-04-25 14:41 48.61675 -48.24804 32296 ft 473 kts 63°
2026-04-25 14:41 48.64689 -48.15931 32296 ft 475 kts 63°
2026-04-25 14:42 48.67200 -48.08517 32297 ft 477 kts 63°
2026-04-25 14:42 48.70737 -47.98031 32303 ft 480 kts 63°
2026-04-25 14:43 48.73767 -47.89020 32308 ft 479 kts 64°
2026-04-25 14:43 48.76757 -47.80094 32313 ft 476 kts 64°
2026-04-25 14:44 48.79739 -47.71161 32321 ft 473 kts 64°
2026-04-25 14:44 48.82701 -47.62256 32333 ft 474 kts 64°
2026-04-25 14:45 48.85671 -47.53295 32340 ft 477 kts 64°
2026-04-25 14:45 48.88654 -47.44261 32327 ft 479 kts 64°
2026-04-25 14:46 48.91635 -47.35205 32333 ft 479 kts 64°
2026-04-25 14:46 48.94609 -47.26134 32351 ft 479 kts 65°
2026-04-25 14:47 48.97071 -47.18602 32356 ft 478 kts 65°
2026-04-25 14:47 49.00521 -47.08009 32360 ft 477 kts 65°
2026-04-25 14:48 49.03456 -46.98966 32359 ft 476 kts 65°
2026-04-25 14:48 49.06379 -46.89923 32363 ft 476 kts 65°
2026-04-25 14:49 49.09298 -46.80858 32371 ft 476 kts 65°
2026-04-25 14:49 49.12219 -46.71757 32377 ft 478 kts 65°
2026-04-25 14:50 49.15133 -46.62645 32383 ft 477 kts 65°
2026-04-25 14:50 49.18031 -46.53557 32382 ft 475 kts 65°
2026-04-25 14:51 49.20906 -46.44501 32395 ft 479 kts 66°
2026-04-25 14:51 49.23816 -46.35295 32395 ft 482 kts 66°
2026-04-25 14:52 49.26738 -46.26020 32401 ft 484 kts 66°
2026-04-25 14:52 49.29182 -46.18241 32401 ft 483 kts 66°
2026-04-25 14:53 49.32550 -46.07479 32409 ft 481 kts 66°
2026-04-25 14:53 49.35433 -45.98222 32410 ft 481 kts 66°
2026-04-25 14:54 49.38310 -45.88956 32419 ft 481 kts 66°
2026-04-25 14:54 49.41181 -45.79675 32430 ft 482 kts 66°
2026-04-25 14:55 49.44064 -45.70317 32433 ft 486 kts 67°
2026-04-25 14:55 49.46940 -45.60947 32436 ft 489 kts 67°
2026-04-25 14:56 49.49840 -45.51463 32436 ft 490 kts 67°
2026-04-25 14:56 49.52733 -45.41968 32438 ft 488 kts 67°
2026-04-25 14:57 49.55602 -45.32514 32442 ft 487 kts 67°
2026-04-25 14:57 49.58464 -45.23046 32450 ft 489 kts 67°
2026-04-25 14:58 49.61335 -45.13510 32457 ft 492 kts 68°
2026-04-25 14:58 49.64210 -45.03922 32452 ft 492 kts 68°
2026-04-25 14:59 49.67075 -44.94335 32458 ft 491 kts 68°
2026-04-25 14:59 49.69911 -44.84805 32464 ft 493 kts 68°
2026-04-25 15:00 49.72768 -44.75159 32467 ft 494 kts 68°
2026-04-25 15:00 49.75628 -44.65473 32468 ft 494 kts 68°
2026-04-25 15:01 49.78476 -44.55790 32472 ft 494 kts 68°
2026-04-25 15:01 49.81314 -44.46098 32475 ft 495 kts 69°
2026-04-25 15:02 49.84150 -44.36376 32481 ft 495 kts 69°
2026-04-25 15:02 49.86980 -44.26634 32485 ft 496 kts 69°
2026-04-25 15:03 49.89784 -44.16941 32478 ft 496 kts 69°
2026-04-25 15:03 49.92603 -44.07157 32486 ft 497 kts 69°
2026-04-25 15:04 49.95413 -43.97367 32493 ft 497 kts 69°
2026-04-25 15:04 49.98215 -43.87560 32507 ft 497 kts 70°
2026-04-25 15:05 50.01019 -43.77709 32490 ft 498 kts 70°
2026-04-25 15:06 50.05207 -43.62918 32507 ft 498 kts 70°
2026-04-25 15:06 50.07994 -43.53024 32508 ft 499 kts 70°
2026-04-25 15:07 50.10772 -43.43121 32509 ft 499 kts 70°
2026-04-25 15:07 50.13542 -43.33204 32518 ft 499 kts 71°
2026-04-25 15:08 50.16310 -43.23250 32523 ft 500 kts 71°
2026-04-25 15:08 50.19071 -43.13283 32526 ft 500 kts 71°
2026-04-25 15:09 50.21806 -43.03365 32525 ft 501 kts 71°
2026-04-25 15:09 50.25922 -42.88363 32535 ft 501 kts 71°
2026-04-25 15:10 50.28658 -42.78339 32532 ft 501 kts 71°
2026-04-25 15:11 50.32742 -42.63290 32543 ft 501 kts 72°
2026-04-25 15:11 50.35455 -42.53240 32543 ft 501 kts 72°
2026-04-25 15:12 50.39509 -42.38141 32554 ft 501 kts 72°
2026-04-25 15:12 50.41309 -42.31402 32549 ft 501 kts 72°
2026-04-25 15:13 50.46218 -42.12930 32558 ft 501 kts 72°
2026-04-25 15:14 50.48885 -42.02834 32553 ft 501 kts 72°
2026-04-25 15:14 50.51545 -41.92717 32559 ft 501 kts 73°
2026-04-25 15:15 50.54182 -41.82643 32559 ft 501 kts 73°
2026-04-25 15:15 50.56825 -41.72503 32566 ft 501 kts 73°
2026-04-25 15:16 50.59460 -41.62346 32574 ft 501 kts 73°
2026-04-25 15:16 50.63398 -41.47083 32577 ft 501 kts 73°
2026-04-25 15:17 50.67311 -41.31818 32588 ft 502 kts 73°
2026-04-25 15:17 50.68618 -41.26689 32772 ft 504 kts 73°
2026-04-25 15:18 50.69922 -41.21564 33129 ft 503 kts 73°
2026-04-25 15:18 50.72515 -41.11349 33895 ft 499 kts 73°
2026-04-25 15:18 50.73801 -41.06268 34224 ft 498 kts 73°
2026-04-25 15:19 50.75083 -41.01184 34472 ft 498 kts 73°
2026-04-25 15:19 50.75501 -40.99524 34504 ft 499 kts 73°
2026-04-25 15:19 50.78910 -40.85936 34589 ft 499 kts 73°
2026-04-25 15:20 50.81457 -40.75735 34591 ft 499 kts 73°
2026-04-25 15:20 50.83995 -40.65521 34599 ft 499 kts 73°
2026-04-25 15:21 50.86526 -40.55289 34598 ft 499 kts 73°
2026-04-25 15:21 50.89049 -40.45040 34601 ft 499 kts 73°
2026-04-25 15:22 50.91565 -40.34776 34601 ft 500 kts 73°
2026-04-25 15:22 50.94072 -40.24500 34601 ft 500 kts 73°
2026-04-25 15:23 50.96572 -40.14201 34604 ft 500 kts 73°
2026-04-25 15:23 50.99063 -40.03904 34621 ft 500 kts 73°
2026-04-25 15:24 51.02089 -39.93892 34614 ft 506 kts 64°
2026-04-25 15:24 51.04435 -39.87491 34620 ft 506 kts 64°
2026-04-25 15:25 51.08618 -39.76215 34618 ft 506 kts 64°
2026-04-25 15:25 51.12723 -39.64965 34623 ft 505 kts 64°
2026-04-25 15:26 51.16221 -39.55251 34628 ft 505 kts 64°
2026-04-25 15:26 51.19136 -39.47109 34635 ft 505 kts 64°
2026-04-25 15:27 51.22608 -39.37381 34636 ft 504 kts 64°
2026-04-25 15:28 51.27784 -39.22823 34640 ft 505 kts 64°
2026-04-25 15:28 51.31248 -39.13033 34648 ft 506 kts 64°
2026-04-25 15:29 51.34709 -39.03218 34654 ft 506 kts 65°
2026-04-25 15:29 51.38158 -38.93396 34674 ft 506 kts 65°
2026-04-25 15:30 51.41598 -38.83562 34684 ft 507 kts 65°
2026-04-25 15:30 51.45010 -38.73769 34674 ft 505 kts 65°
2026-04-25 15:31 51.48424 -38.63935 34674 ft 504 kts 65°
2026-04-25 15:31 51.51832 -38.54075 34686 ft 505 kts 65°
2026-04-25 15:32 51.55229 -38.44209 34691 ft 504 kts 65°
2026-04-25 15:32 51.58614 -38.34340 34687 ft 503 kts 65°
2026-04-25 15:33 51.63660 -38.19558 34698 ft 502 kts 65°
2026-04-25 15:33 51.67007 -38.09703 34714 ft 501 kts 65°
2026-04-25 15:34 51.70347 -37.99832 34714 ft 502 kts 65°
2026-04-25 15:34 51.73117 -37.91613 34716 ft 501 kts 65°
2026-04-25 15:35 51.78655 -37.75101 34723 ft 501 kts 65°
2026-04-25 15:36 51.83602 -37.60260 34731 ft 502 kts 65°
2026-04-25 15:36 51.86922 -37.50251 34736 ft 502 kts 65°
2026-04-25 15:37 51.90216 -37.40278 34743 ft 502 kts 65°
2026-04-25 15:37 51.93504 -37.30282 34749 ft 503 kts 65°
2026-04-25 15:38 51.96766 -37.20327 34756 ft 503 kts 65°
2026-04-25 15:38 52.00048 -37.10271 34761 ft 504 kts 65°
2026-04-25 15:39 52.03325 -37.00187 34764 ft 505 kts 65°
2026-04-25 15:39 52.06593 -36.90090 34769 ft 506 kts 65°
2026-04-25 15:40 52.09308 -36.81671 34776 ft 506 kts 66°
2026-04-25 15:40 52.13105 -36.69847 34781 ft 507 kts 66°
2026-04-25 15:41 52.16362 -36.59659 34786 ft 507 kts 66°
2026-04-25 15:41 52.19616 -36.49439 34789 ft 507 kts 66°
2026-04-25 15:42 52.22857 -36.39215 34794 ft 508 kts 66°
2026-04-25 15:42 52.26100 -36.28945 34800 ft 508 kts 66°
2026-04-25 15:43 52.29327 -36.18679 34805 ft 508 kts 66°
2026-04-25 15:43 52.32527 -36.08458 34803 ft 509 kts 66°
2026-04-25 15:44 52.35747 -35.98130 34803 ft 509 kts 66°
2026-04-25 15:44 52.38955 -35.87794 34823 ft 510 kts 66°
2026-04-25 15:45 52.42160 -35.77425 34829 ft 510 kts 66°
2026-04-25 15:45 52.44822 -35.68779 34829 ft 511 kts 66°
2026-04-25 15:46 52.48555 -35.56604 34834 ft 511 kts 66°
2026-04-25 15:46 52.51739 -35.46169 34837 ft 512 kts 66°
2026-04-25 15:47 52.54897 -35.35774 34838 ft 512 kts 66°
2026-04-25 15:47 52.58073 -35.25271 34844 ft 513 kts 66°
2026-04-25 15:48 52.61245 -35.14741 34845 ft 513 kts 66°
2026-04-25 15:48 52.64407 -35.04196 34851 ft 514 kts 66°
2026-04-25 15:49 52.67560 -34.93633 34857 ft 514 kts 66°
2026-04-25 15:49 52.70712 -34.83027 34861 ft 515 kts 66°
2026-04-25 15:50 52.73833 -34.72480 34868 ft 515 kts 66°
2026-04-25 15:50 52.76968 -34.61838 34866 ft 516 kts 66°
2026-04-25 15:51 52.79592 -34.52892 34870 ft 516 kts 66°
2026-04-25 15:51 52.83221 -34.40465 34874 ft 516 kts 66°
2026-04-25 15:52 52.86335 -34.29752 34872 ft 516 kts 66°
2026-04-25 15:52 52.89438 -34.19026 34873 ft 515 kts 66°
2026-04-25 15:53 52.92500 -34.08394 34876 ft 514 kts 66°
2026-04-25 15:53 52.95568 -33.97694 34883 ft 514 kts 66°
2026-04-25 15:54 52.98631 -33.86959 34887 ft 514 kts 66°
2026-04-25 15:54 53.01679 -33.76229 34885 ft 513 kts 66°
2026-04-25 15:55 53.04715 -33.65495 34889 ft 513 kts 66°
2026-04-25 15:55 53.07739 -33.54753 34890 ft 513 kts 66°
2026-04-25 15:56 53.10751 -33.44000 34892 ft 513 kts 66°
2026-04-25 15:56 53.13763 -33.33200 34894 ft 514 kts 66°
2026-04-25 15:57 53.16763 -33.22395 34894 ft 514 kts 66°
2026-04-25 15:57 53.19752 -33.11575 34892 ft 513 kts 66°
2026-04-25 15:58 53.22714 -33.00806 34898 ft 514 kts 66°
2026-04-25 15:58 53.25688 -32.89943 34902 ft 514 kts 66°
2026-04-25 15:59 53.28655 -32.79054 34908 ft 515 kts 66°
2026-04-25 15:59 53.31615 -32.68135 34906 ft 515 kts 66°
2026-04-25 16:00 53.33569 -32.60901 34903 ft 515 kts 66°
2026-04-25 16:00 53.37513 -32.46229 34912 ft 516 kts 66°
2026-04-25 16:01 53.40432 -32.35309 34905 ft 516 kts 66°
2026-04-25 16:01 53.43356 -32.24317 34911 ft 516 kts 66°
2026-04-25 16:02 53.46276 -32.13287 34913 ft 517 kts 66°
2026-04-25 16:02 53.49184 -32.02249 34910 ft 517 kts 66°
2026-04-25 16:03 53.52083 -31.91191 34912 ft 517 kts 66°
2026-04-25 16:03 53.54974 -31.80110 34913 ft 518 kts 66°
2026-04-25 16:04 53.57861 -31.68995 34914 ft 518 kts 66°
2026-04-25 16:04 53.60735 -31.57863 34921 ft 519 kts 66°
2026-04-25 16:05 53.63600 -31.46718 34919 ft 518 kts 66°
2026-04-25 16:06 53.67881 -31.29959 34919 ft 519 kts 66°
2026-04-25 16:06 53.70722 -31.18767 34919 ft 519 kts 66°
2026-04-25 16:07 53.73535 -31.07631 34925 ft 519 kts 66°
2026-04-25 16:07 53.76356 -30.96405 34923 ft 519 kts 66°
2026-04-25 16:08 53.79168 -30.85159 34927 ft 519 kts 66°
2026-04-25 16:08 53.81968 -30.73907 34922 ft 519 kts 66°
2026-04-25 16:09 53.84756 -30.62639 34926 ft 519 kts 66°
2026-04-25 16:09 53.87534 -30.51357 34923 ft 519 kts 67°
2026-04-25 16:10 53.90302 -30.40061 34928 ft 518 kts 67°
2026-04-25 16:10 53.93055 -30.28761 34921 ft 517 kts 67°
2026-04-25 16:11 53.95776 -30.17541 34928 ft 517 kts 67°
2026-04-25 16:11 53.98503 -30.06243 34926 ft 516 kts 67°
2026-04-25 16:12 54.00872 -29.94740 34927 ft 515 kts 76°
2026-04-25 16:12 54.02552 -29.82910 34927 ft 515 kts 77°
2026-04-25 16:13 54.04172 -29.71050 34928 ft 514 kts 77°
2026-04-25 16:13 54.05536 -29.61205 34922 ft 514 kts 76°
2026-04-25 16:14 54.07189 -29.49384 34938 ft 514 kts 76°
2026-04-25 16:14 54.08843 -29.37545 34923 ft 513 kts 77°
2026-04-25 16:15 54.10481 -29.25726 34937 ft 512 kts 77°
2026-04-25 16:15 54.12104 -29.13901 34927 ft 512 kts 77°
2026-04-25 16:16 54.13713 -29.02075 34932 ft 512 kts 77°
2026-04-25 16:16 54.15308 -28.90257 34932 ft 511 kts 77°
2026-04-25 16:17 54.16891 -28.78441 34932 ft 511 kts 77°
2026-04-25 16:17 54.18461 -28.66619 34920 ft 510 kts 77°
2026-04-25 16:18 54.20018 -28.54808 34935 ft 509 kts 77°
2026-04-25 16:18 54.21558 -28.43024 34930 ft 508 kts 77°
2026-04-25 16:19 54.23076 -28.31313 34928 ft 508 kts 78°
2026-04-25 16:19 54.24591 -28.19526 34942 ft 507 kts 78°
2026-04-25 16:20 54.26841 -28.01838 34931 ft 506 kts 78°
2026-04-25 16:21 54.29060 -27.84179 34938 ft 505 kts 78°
2026-04-25 16:21 54.30520 -27.72430 34929 ft 504 kts 78°
2026-04-25 16:22 54.31956 -27.60777 34938 ft 503 kts 78°
2026-04-25 16:22 54.33389 -27.49055 34929 ft 502 kts 78°
2026-04-25 16:23 54.34808 -27.37333 34948 ft 502 kts 79°
2026-04-25 16:23 54.36215 -27.25619 34926 ft 501 kts 79°
2026-04-25 16:24 54.37607 -27.13925 34934 ft 500 kts 79°
2026-04-25 16:24 54.38984 -27.02253 34933 ft 499 kts 79°
2026-04-25 16:25 54.40349 -26.90587 34941 ft 498 kts 79°
2026-04-25 16:25 54.41700 -26.78924 34931 ft 497 kts 79°
2026-04-25 16:26 54.43039 -26.67266 34939 ft 497 kts 80°
2026-04-25 16:26 54.44364 -26.55634 34934 ft 496 kts 80°
2026-04-25 16:27 54.45668 -26.44074 34931 ft 495 kts 80°
2026-04-25 16:27 54.46965 -26.32463 34939 ft 494 kts 80°
2026-04-25 16:28 54.48251 -26.20855 34945 ft 494 kts 81°
2026-04-25 16:28 54.49524 -26.09255 34929 ft 493 kts 81°
2026-04-25 16:29 54.50782 -25.97675 34944 ft 492 kts 81°
2026-04-25 16:29 54.52026 -25.86126 34937 ft 491 kts 81°
2026-04-25 16:30 54.53257 -25.74578 34937 ft 490 kts 81°
2026-04-25 16:30 54.54477 -25.63037 34931 ft 489 kts 81°
2026-04-25 16:31 54.55682 -25.51519 34939 ft 488 kts 81°
2026-04-25 16:31 54.56874 -25.40015 34935 ft 487 kts 82°
2026-04-25 16:32 54.58054 -25.28516 34945 ft 487 kts 82°
2026-04-25 16:32 54.59214 -25.17096 34941 ft 486 kts 82°
2026-04-25 16:33 54.60368 -25.05625 34942 ft 485 kts 82°
2026-04-25 16:33 54.61509 -24.94167 34939 ft 484 kts 82°
2026-04-25 16:34 54.62639 -24.82708 34944 ft 483 kts 82°
2026-04-25 16:34 54.63755 -24.71271 34942 ft 483 kts 82°
2026-04-25 16:35 54.64860 -24.59837 34944 ft 482 kts 83°
2026-04-25 16:35 54.65952 -24.48421 34940 ft 481 kts 83°
2026-04-25 16:36 54.67031 -24.37019 34946 ft 480 kts 83°
2026-04-25 16:36 54.68097 -24.25630 34943 ft 479 kts 83°
2026-04-25 16:37 54.69150 -24.14263 34947 ft 479 kts 83°
2026-04-25 16:37 54.70192 -24.02900 34941 ft 478 kts 83°
2026-04-25 16:38 54.71221 -23.91555 34947 ft 477 kts 84°
2026-04-25 16:38 54.72237 -23.80223 34948 ft 476 kts 84°
2026-04-25 16:39 54.73242 -23.68896 34943 ft 475 kts 84°
2026-04-25 16:39 54.74233 -23.57613 34941 ft 474 kts 84°
2026-04-25 16:40 54.75205 -23.46412 34949 ft 473 kts 84°
2026-04-25 16:40 54.76172 -23.35142 34945 ft 473 kts 84°
2026-04-25 16:41 54.77127 -23.23889 34956 ft 472 kts 84°
2026-04-25 16:41 54.78536 -23.07058 34955 ft 470 kts 85°
2026-04-25 16:42 54.79460 -22.95845 34947 ft 469 kts 85°
2026-04-25 16:42 54.80370 -22.84677 34951 ft 468 kts 85°
2026-04-25 16:43 54.81271 -22.73498 34952 ft 467 kts 85°
2026-04-25 16:43 54.82157 -22.62354 34948 ft 466 kts 85°
2026-04-25 16:44 54.83033 -22.51224 34952 ft 465 kts 86°
2026-04-25 16:44 54.83897 -22.40103 34957 ft 465 kts 86°
2026-04-25 16:45 54.84744 -22.29066 34957 ft 463 kts 86°
2026-04-25 16:45 54.85584 -22.17991 34962 ft 463 kts 86°
2026-04-25 16:46 54.86414 -22.06900 34957 ft 463 kts 86°
2026-04-25 16:46 54.86963 -21.99482 34962 ft 462 kts 86°
2026-04-25 16:47 54.88041 -21.84755 34963 ft 461 kts 86°
2026-04-25 16:47 54.88837 -21.73709 34962 ft 460 kts 87°
2026-04-25 16:48 54.89621 -21.62679 34963 ft 459 kts 87°
2026-04-25 16:48 54.90389 -21.51735 34969 ft 459 kts 87°
2026-04-25 16:49 54.91150 -21.40753 34968 ft 458 kts 87°
2026-04-25 16:49 54.91901 -21.29764 34969 ft 457 kts 87°
2026-04-25 16:50 54.92640 -21.18797 34973 ft 455 kts 87°
2026-04-25 16:50 54.93366 -21.07874 34974 ft 455 kts 87°
2026-04-25 16:51 54.94082 -20.96950 34978 ft 454 kts 88°
2026-04-25 16:51 54.94551 -20.89719 34978 ft 454 kts 88°
2026-04-25 16:52 54.95482 -20.75143 34980 ft 452 kts 88°
2026-04-25 16:52 54.96160 -20.64352 34984 ft 451 kts 88°
2026-04-25 16:53 54.97163 -20.48085 34988 ft 449 kts 88°
2026-04-25 16:54 54.97817 -20.37281 34993 ft 449 kts 88°
2026-04-25 16:54 54.98461 -20.26483 34992 ft 448 kts 88°
2026-04-25 16:55 54.99095 -20.15692 35005 ft 447 kts 88°
2026-04-25 16:55 54.99719 -20.04945 34998 ft 446 kts 88°
2026-04-25 16:56 55.00166 -19.94204 35003 ft 443 kts 91°
2026-04-25 16:56 55.00365 -19.83473 35006 ft 442 kts 92°
2026-04-25 16:57 55.00539 -19.72757 35005 ft 442 kts 92°
2026-04-25 16:57 55.00716 -19.62148 35000 ft 441 kts 92°
2026-04-25 16:58 55.00895 -19.51461 35006 ft 441 kts 92°
2026-04-25 16:58 55.01067 -19.40792 35011 ft 440 kts 92°
2026-04-25 16:59 55.01230 -19.30133 35013 ft 439 kts 92°
2026-04-25 16:59 55.01358 -19.21296 35014 ft 438 kts 92°
2026-04-25 17:00 55.01502 -19.10679 35016 ft 438 kts 92°
2026-04-25 17:00 55.01637 -19.00079 35022 ft 437 kts 92°
2026-04-25 17:01 55.01763 -18.89492 35022 ft 437 kts 92°
2026-04-25 17:01 55.01879 -18.78929 35022 ft 435 kts 92°
2026-04-25 17:02 55.01985 -18.68445 35028 ft 435 kts 92°
2026-04-25 17:02 55.02083 -18.57902 35034 ft 434 kts 92°
2026-04-25 17:03 55.02171 -18.47378 35034 ft 434 kts 93°
2026-04-25 17:03 55.02251 -18.36868 35030 ft 433 kts 93°
2026-04-25 17:04 55.02321 -18.26376 35024 ft 432 kts 93°
2026-04-25 17:04 55.02382 -18.15898 35033 ft 432 kts 93°
2026-04-25 17:05 55.02434 -18.05428 35052 ft 433 kts 93°
2026-04-25 17:05 55.02495 -17.89724 35047 ft 434 kts 93°
2026-04-25 17:06 55.02524 -17.79187 35043 ft 435 kts 93°
2026-04-25 17:06 55.02545 -17.68617 35052 ft 436 kts 93°
2026-04-25 17:07 55.02557 -17.58049 35053 ft 437 kts 93°
2026-04-25 17:07 55.02559 -17.47441 35056 ft 438 kts 93°
2026-04-25 17:08 55.02552 -17.36826 35060 ft 438 kts 94°
2026-04-25 17:08 55.02536 -17.26186 35061 ft 439 kts 94°
2026-04-25 17:09 55.02511 -17.15531 35064 ft 440 kts 94°
2026-04-25 17:09 55.02476 -17.04839 35064 ft 441 kts 94°
2026-04-25 17:10 55.02431 -16.94122 35069 ft 442 kts 94°
2026-04-25 17:10 55.02378 -16.83463 35072 ft 443 kts 94°
2026-04-25 17:11 55.02315 -16.72719 35071 ft 444 kts 94°
2026-04-25 17:11 55.02241 -16.61923 35071 ft 445 kts 94°
2026-04-25 17:12 55.02159 -16.51126 35076 ft 446 kts 94°
2026-04-25 17:12 55.02066 -16.40312 35082 ft 447 kts 94°
2026-04-25 17:13 55.01982 -16.31290 35081 ft 448 kts 94°
2026-04-25 17:13 55.01852 -16.18643 35085 ft 449 kts 94°
2026-04-25 17:14 55.01730 -16.07760 35083 ft 450 kts 94°
2026-04-25 17:14 55.01598 -15.96847 35085 ft 451 kts 94°
2026-04-25 17:15 55.01456 -15.85924 35092 ft 452 kts 94°
2026-04-25 17:15 55.01304 -15.74966 35088 ft 453 kts 95°
2026-04-25 17:16 55.01141 -15.63984 35094 ft 454 kts 95°
2026-04-25 17:16 55.00968 -15.52958 35097 ft 455 kts 95°
2026-04-25 17:17 55.00785 -15.41927 35104 ft 456 kts 95°
2026-04-25 17:17 55.00592 -15.30884 35098 ft 457 kts 95°
2026-04-25 17:18 55.00388 -15.19814 35103 ft 457 kts 95°
2026-04-25 17:18 55.00176 -15.08720 35101 ft 458 kts 95°
2026-04-25 17:19 54.99962 -14.97678 35107 ft 460 kts 94°
2026-04-25 17:19 54.99969 -14.86518 35113 ft 461 kts 92°
2026-04-25 17:20 55.00051 -14.75337 35115 ft 462 kts 92°
2026-04-25 17:20 55.00093 -14.64128 35118 ft 463 kts 93°
2026-04-25 17:21 55.00103 -14.52905 35121 ft 464 kts 93°
2026-04-25 17:21 55.00098 -14.41654 35116 ft 465 kts 93°
2026-04-25 17:22 55.00088 -14.32286 35121 ft 466 kts 93°
2026-04-25 17:22 55.00062 -14.19089 35122 ft 466 kts 93°
2026-04-25 17:23 55.00030 -14.07770 35125 ft 468 kts 94°
2026-04-25 17:23 54.99636 -13.96579 35121 ft 464 kts 102°
2026-04-25 17:24 54.98308 -13.85570 35131 ft 464 kts 105°
2026-04-25 17:24 54.96914 -13.74580 35131 ft 465 kts 105°
2026-04-25 17:25 54.95534 -13.63588 35132 ft 465 kts 105°
2026-04-25 17:25 54.94159 -13.52574 35133 ft 466 kts 105°
2026-04-25 17:26 54.92786 -13.41620 35134 ft 467 kts 105°
2026-04-25 17:26 54.91392 -13.30585 35140 ft 467 kts 105°
2026-04-25 17:27 54.89984 -13.19531 35138 ft 469 kts 105°
2026-04-25 17:27 54.89035 -13.12136 35140 ft 469 kts 105°
2026-04-25 17:28 54.87132 -12.97416 35141 ft 470 kts 105°
2026-04-25 17:28 54.85688 -12.86346 35148 ft 471 kts 105°
2026-04-25 17:29 54.84231 -12.75263 35147 ft 472 kts 106°
2026-04-25 17:29 54.82762 -12.64173 35151 ft 472 kts 106°
2026-04-25 17:30 54.81281 -12.53080 35152 ft 473 kts 106°
2026-04-25 17:30 54.79788 -12.41975 35154 ft 473 kts 106°
2026-04-25 17:31 54.78282 -12.30863 35159 ft 474 kts 106°
2026-04-25 17:31 54.76762 -12.19725 35160 ft 475 kts 106°
2026-04-25 17:32 54.75232 -12.08603 35159 ft 475 kts 106°
2026-04-25 17:32 54.73689 -11.97470 35162 ft 476 kts 106°
2026-04-25 17:33 54.72143 -11.86391 35165 ft 477 kts 107°
2026-04-25 17:33 54.70574 -11.75231 35166 ft 477 kts 107°
2026-04-25 17:34 54.68992 -11.64059 35168 ft 478 kts 107°
2026-04-25 17:34 54.67401 -11.52908 35166 ft 478 kts 107°
2026-04-25 17:35 54.65798 -11.41750 35172 ft 479 kts 107°
2026-04-25 17:35 54.64192 -11.30654 35175 ft 479 kts 107°
2026-04-25 17:36 54.62564 -11.19484 35175 ft 480 kts 107°
2026-04-25 17:36 54.60926 -11.08321 35174 ft 480 kts 107°
2026-04-25 17:37 54.59273 -10.97140 35178 ft 481 kts 107°
2026-04-25 17:37 54.57609 -10.85964 35178 ft 481 kts 107°
2026-04-25 17:38 54.56500 -10.78556 35274 ft 483 kts 108°
2026-04-25 17:38 54.54203 -10.63343 35175 ft 494 kts 108°
2026-04-25 17:39 54.52462 -10.51884 35172 ft 495 kts 108°
2026-04-25 17:39 54.50721 -10.40502 35187 ft 494 kts 108°
2026-04-25 17:40 54.48960 -10.29076 35186 ft 494 kts 108°
2026-04-25 17:40 54.47188 -10.17664 35185 ft 494 kts 108°
2026-04-25 17:41 54.45406 -10.06267 35183 ft 494 kts 108°
2026-04-25 17:41 54.43612 -9.94869 35183 ft 494 kts 108°
2026-04-25 17:42 54.41807 -9.83482 35182 ft 493 kts 108°
2026-04-25 17:42 54.39990 -9.72106 35195 ft 502 kts 108°
2026-04-25 17:43 54.38121 -9.60482 35185 ft 507 kts 108°
2026-04-25 17:43 54.36230 -9.48785 35173 ft 508 kts 108°
2026-04-25 17:44 54.34335 -9.37141 35174 ft 507 kts 108°
2026-04-25 17:44 54.32426 -9.25499 35173 ft 507 kts 108°
2026-04-25 17:45 54.31158 -9.17812 35174 ft 507 kts 108°
2026-04-25 17:45 54.28579 -9.02284 35177 ft 507 kts 108°
2026-04-25 17:46 54.26653 -8.90776 35177 ft 506 kts 109°
2026-04-25 17:46 54.24703 -8.79197 35176 ft 506 kts 109°
2026-04-25 17:47 54.22744 -8.67644 35185 ft 506 kts 109°
2026-04-25 17:47 54.20771 -8.56090 35183 ft 506 kts 109°
2026-04-25 17:48 54.18117 -8.40657 35179 ft 506 kts 109°
2026-04-25 17:49 54.16132 -8.29202 35167 ft 506 kts 109°
2026-04-25 17:49 54.14124 -8.17692 35166 ft 506 kts 109°
2026-04-25 17:50 54.12106 -8.06196 35154 ft 506 kts 109°
2026-04-25 17:50 54.10079 -7.94724 35146 ft 506 kts 109°
2026-04-25 17:51 54.08039 -7.83251 35153 ft 506 kts 109°
2026-04-25 17:51 54.05989 -7.71789 35151 ft 505 kts 109°
2026-04-25 17:52 54.03928 -7.60348 35151 ft 505 kts 109°
2026-04-25 17:52 54.01871 -7.48992 35152 ft 506 kts 109°
2026-04-25 17:53 53.99788 -7.37568 35154 ft 506 kts 109°
2026-04-25 17:53 53.97695 -7.26152 35154 ft 506 kts 109°
2026-04-25 17:54 53.95591 -7.14750 35158 ft 506 kts 109°
2026-04-25 17:54 53.93477 -7.03357 35153 ft 506 kts 109°
2026-04-25 17:55 53.91350 -6.91978 35168 ft 506 kts 110°
2026-04-25 17:55 53.88713 -6.80955 35181 ft 504 kts 116°
2026-04-25 17:56 53.85822 -6.70141 35159 ft 504 kts 116°
2026-04-25 17:56 53.82932 -6.59312 35173 ft 505 kts 116°
2026-04-25 17:57 53.80058 -6.48462 35181 ft 505 kts 116°
2026-04-25 17:57 53.77186 -6.37626 35187 ft 505 kts 116°
2026-04-25 17:58 53.74305 -6.26817 35191 ft 504 kts 116°
2026-04-25 17:58 53.71410 -6.16013 35184 ft 505 kts 116°
2026-04-25 17:59 53.68536 -6.05336 35136 ft 497 kts 116°
2026-04-25 17:59 53.67096 -6.00005 34260 ft 502 kts 116°
2026-04-25 17:59 53.65645 -5.94647 33330 ft 501 kts 116°
2026-04-25 17:59 53.64195 -5.89308 32396 ft 501 kts 117°
2026-04-25 18:00 53.62740 -5.83958 31455 ft 502 kts 117°
2026-04-25 18:00 53.61280 -5.78607 30601 ft 502 kts 117°
2026-04-25 18:00 53.59832 -5.73303 29949 ft 497 kts 117°
2026-04-25 18:00 53.58392 -5.68040 29259 ft 492 kts 117°
2026-04-25 18:01 53.56966 -5.62842 28624 ft 486 kts 116°
2026-04-25 18:01 53.55650 -5.57796 28029 ft 481 kts 115°
2026-04-25 18:01 53.54359 -5.52646 27426 ft 476 kts 113°
2026-04-25 18:01 53.53457 -5.47328 26858 ft 473 kts 97°
2026-04-25 18:02 53.53324 -5.41836 26443 ft 472 kts 91°
2026-04-25 18:02 53.53295 -5.36307 25942 ft 473 kts 91°
2026-04-25 18:02 53.53230 -5.30789 25456 ft 471 kts 92°
2026-04-25 18:02 53.53120 -5.25303 24977 ft 468 kts 92°
2026-04-25 18:03 53.52983 -5.19861 24496 ft 464 kts 93°
2026-04-25 18:03 53.52837 -5.14472 24025 ft 460 kts 93°
2026-04-25 18:03 53.52677 -5.09193 23512 ft 456 kts 93°
2026-04-25 18:03 53.52506 -5.03890 22980 ft 452 kts 94°
2026-04-25 18:04 53.52334 -4.98643 22501 ft 448 kts 94°
2026-04-25 18:04 53.52164 -4.93421 22033 ft 446 kts 93°
2026-04-25 18:04 53.51995 -4.88235 21570 ft 444 kts 94°
2026-04-25 18:04 53.51825 -4.83069 21122 ft 441 kts 94°
2026-04-25 18:05 53.51655 -4.77949 20671 ft 438 kts 94°
2026-04-25 18:05 53.51483 -4.72858 20229 ft 435 kts 94°
2026-04-25 18:05 53.51312 -4.67804 19785 ft 432 kts 94°
2026-04-25 18:05 53.51138 -4.62768 19339 ft 429 kts 94°
2026-04-25 18:06 53.50965 -4.57776 18902 ft 427 kts 94°
2026-04-25 18:06 53.50790 -4.52812 18464 ft 424 kts 94°
2026-04-25 18:06 53.50614 -4.47883 17963 ft 421 kts 94°
2026-04-25 18:06 53.50438 -4.43000 17504 ft 417 kts 94°
2026-04-25 18:07 53.50262 -4.38167 17063 ft 413 kts 94°
2026-04-25 18:07 53.50088 -4.33430 16642 ft 409 kts 94°
2026-04-25 18:07 53.49911 -4.28672 16234 ft 406 kts 94°
2026-04-25 18:07 53.49733 -4.23962 15811 ft 403 kts 94°
2026-04-25 18:08 53.49555 -4.19271 15393 ft 400 kts 94°
2026-04-25 18:08 53.49377 -4.14625 14977 ft 398 kts 94°
2026-04-25 18:08 53.49198 -4.10010 14577 ft 395 kts 94°
2026-04-25 18:08 53.49019 -4.05429 14173 ft 391 kts 94°
2026-04-25 18:09 53.48840 -4.00885 13740 ft 388 kts 95°
2026-04-25 18:09 53.48640 -3.96392 13301 ft 382 kts 97°
2026-04-25 18:09 53.48032 -3.92085 12952 ft 376 kts 109°
2026-04-25 18:09 53.47761 -3.90682 12887 ft 372 kts 109°
2026-04-25 18:10 53.46480 -3.84160 12478 ft 329 kts 109°
2026-04-25 18:10 53.45782 -3.80656 12183 ft 305 kts 109°
2026-04-25 18:10 53.45123 -3.77360 11692 ft 292 kts 109°
2026-04-25 18:10 53.44485 -3.74177 11073 ft 285 kts 109°
2026-04-25 18:11 53.43855 -3.71044 10391 ft 282 kts 109°
2026-04-25 18:11 53.43231 -3.67938 9671 ft 280 kts 109°
2026-04-25 18:11 53.42613 -3.64865 8955 ft 277 kts 109°
2026-04-25 18:11 53.42003 -3.61828 8329 ft 271 kts 109°
2026-04-25 18:12 53.41414 -3.58903 8024 ft 265 kts 109°
2026-04-25 18:12 53.40811 -3.55916 7733 ft 273 kts 109°
2026-04-25 18:12 53.40208 -3.52932 7416 ft 275 kts 109°
2026-04-25 18:12 53.39596 -3.49901 7086 ft 275 kts 109°
2026-04-25 18:13 53.38980 -3.46863 6773 ft 274 kts 109°
2026-04-25 18:13 53.38369 -3.43849 6446 ft 274 kts 109°
2026-04-25 18:13 53.37756 -3.40830 6114 ft 273 kts 109°
2026-04-25 18:14 53.36528 -3.34793 5468 ft 274 kts 109°
2026-04-25 18:14 53.35910 -3.31760 5061 ft 277 kts 109°
2026-04-25 18:14 53.35287 -3.28712 4731 ft 276 kts 110°
2026-04-25 18:14 53.34667 -3.25683 4412 ft 274 kts 109°
2026-04-25 18:15 53.34051 -3.22671 4088 ft 272 kts 109°
2026-04-25 18:15 53.33446 -3.19720 3726 ft 261 kts 109°
2026-04-25 18:15 53.32876 -3.16948 3392 ft 244 kts 109°
2026-04-25 18:15 53.32346 -3.14362 3097 ft 226 kts 107°
2026-04-25 18:16 53.32167 -3.11848 2916 ft 212 kts 89°
2026-04-25 18:16 53.32234 -3.09433 2674 ft 200 kts 86°
2026-04-25 18:16 53.32430 -3.05170 2212 ft 178 kts 85°
2026-04-25 18:17 53.32525 -3.03138 2080 ft 172 kts 85°
2026-04-25 18:17 53.32613 -3.01238 1806 ft 153 kts 85°
2026-04-25 18:17 53.32691 -2.99546 1620 ft 144 kts 84°
2026-04-25 18:17 53.32768 -2.97872 1441 ft 145 kts 84°
2026-04-25 18:18 53.32845 -2.96187 1246 ft 145 kts 84°
2026-04-25 18:18 53.32922 -2.94514 1044 ft 144 kts 83°
2026-04-25 18:18 53.33001 -2.92823 843 ft 148 kts 83°
2026-04-25 18:18 53.33084 -2.91041 643 ft 156 kts 84°
2026-04-25 18:19 53.33167 -2.89225 413 ft 157 kts 85°
2026-04-25 18:19 53.33252 -2.87412 213 ft 156 kts 85°
2026-04-25 18:19 53.33337 -2.85637 96 ft 144 kts 85°
2026-04-25 18:19 53.33388 -2.84473 92 ft 71 kts 86°
2026-04-25 18:20 53.33410 -2.83882 93 ft 23 kts 86°
2026-04-25 18:20 53.33442 -2.83669 93 ft 10 kts 51°
2026-04-25 18:20 53.33492 -2.83639 92 ft 7 kts 359°
2026-04-25 18:20 53.33536 -2.83638 93 ft 6 kts 357°
2026-04-25 18:21 53.33569 -2.83670 94 ft 6 kts 300°
2026-04-25 18:21 53.33580 -2.83741 95 ft 6 kts 277°
2026-04-25 18:21 53.33579 -2.83866 90 ft 21 kts 267°
2026-04-25 18:21 53.33568 -2.84128 94 ft 23 kts 265°
2026-04-25 18:22 53.33556 -2.84392 93 ft 23 kts 266°
2026-04-25 18:22 53.33552 -2.84477 90 ft 23 kts 266°
2026-04-25 18:22 53.33534 -2.84895 93 ft 17 kts 265°
2026-04-25 18:22 53.33529 -2.84989 90 ft 7 kts 267°
2026-04-25 18:23 53.33552 -2.85051 92 ft 6 kts 330°
2026-04-25 18:23 53.33590 -2.85072 93 ft 6 kts 318°
2026-04-25 18:23 53.33589 -2.85127 93 ft 2 kts 263°
2026-04-25 18:23 53.33587 -2.85153 92 ft 2 kts 262°
2026-04-25 18:24 53.33586 -2.85171 93 ft 1 kts 262°
2026-04-25 18:24 53.33585 -2.85180 92 ft 0 kts 263°